Regional Weather Roundup
Issued by NWS Tiyan, Guam

Home | Current Version | Previous Version | Text Only | Print | Product List | Glossary On
Versions: 1 2 3 4 5 6 7 8 9 10 11 12 13 14 15 16 17 18 19 20 21 22 23 24 25 26 27
000
ASGM40 PGUM 210112
RWRGUM
WEATHER ROUNDUP FOR THE MARIANAS
NATIONAL WEATHER SERVICE TIYAN GU
1100 AM CHST TUE FEB 21 2017

GUZ001>004-210200-
MARIANA ISLANDS-

CITY           SKY/WX    TMP DP  RH WIND       PRES   REMARKS
GUAM AIRPORT   MOSUNNY   84  73  70 E14G20    30.03R HX  91
ANDERSEN AFB   MOSUNNY   82  75  78 E13       30.04S
ROTA AIRPORT   MOSUNNY   81  73  78 E16       30.03S
TINIAN AP      MOSUNNY   84  75  74 E13       30.00S HX  92
SAIPAN AP      PTSUNNY   82  75  78 E12       30.02S

$$





USA.gov is the U.S. government's official web portal to all federal, state and local government web resources and services.